Location: Bukit Nyuki
(2.5885°N, 113.7476°E)
Time: 13:27:07
(UTC+00:00)

Cosmos 1892 - Pass Details

Date: 18 May 2021
Orbit: 503 x 522 km, 82.5° (Epoch: 16 June)

Event Time Altitude Azimuth Distance (km) Brightness Sun altitude
Exits shadow 20:56:59 52° 252° (WSW) 631 2.7 -18.9°
Maximum altitude 20:57:19 54° 274° (W) 616 2.7 -18.8°
Drops below altitude 10° 21:00:58 10° 352° (N) 1,709 5.5 -18.0°
Sets 21:03:07 0° 357° (N) 2,593 6.5 -17.5°
